Terug naar catalogus

STARLINK-11253

ActiefCommunicatieVLEO
NORAD 60935·PAYLOAD·🇺🇸 United States

Gelanceerd Aug 31, 2024 vanaf Vandenberg Space Force Base

Loading…

Volgende Passages (komende 24 uur)

TLE

VersSource: CelesTrak SupGP

Epoch: Sep 15, 2026, 03:07 UTC

1 60935C 24155M   26258.13034722  .00067315  00000+0  55432-3 0  2586
2 60935  53.1559 127.6790 0001074  84.0374 220.2567 15.69683385    12

Volg STARLINK-11253 in realtime met AllMySat

Download on the App Store